This demonstration page uses our WeatherBlox Daily Observations layout. Learn more.

Left ArrowRight Arrow

Hourly Observations for October 2, 2015

Temp ( °F °C ) Dew Point ( °F °C ) Humidity (%) Winds ( mph kmh ) Pressure ( in mb ) Visibility ( mi km ) Precip ( " mm )
12:15 am 00:15 Clear 57 14 43 6.1 59 59 SE 10 17 30.27 1025 10 16 N/A
12:35 am 00:35 Partly Cloudy 57 13.8 43 6.1 60 60 SE 15 24 30.24 1024 10 16 N/A
12:55 am 00:55 Mostly Cloudy 56 13.6 43 5.9 60 60 ESE 14 22 30.24 1024 10 16 N/A
1:15 am 01:15 Mostly Cloudy 56 13.5 42 5.8 60 60 ESE 12 19 30.24 1024 10 16 N/A
1:35 am 01:35 Partly Cloudy 56 13.3 43 5.9 61 61 SE 12 19 30.24 1024 10 16 N/A
1:55 am 01:55 Clear 55 13 43 6.1 63 63 SE 10 17 30.27 1025 10 16 N/A
2:15 am 02:15 Clear 55 12.8 43 6 64 64 SE 10 17 30.27 1025 10 16 N/A
2:35 am 02:35 Clear 55 12.7 43 6.1 64 64 ESE 8 13 30.27 1025 10 16 N/A
2:55 am 02:55 Clear 54 12.1 43 6.1 67 67 SE 9 15 30.30 1026 10 16 N/A
3:15 am 03:15 Clear 53 11.7 43 6.1 69 69 ESE 10 17 30.30 1026 10 16 N/A
3:35 am 03:35 Clear 53 11.5 43 6 69 69 SE 10 17 30.27 1025 10 16 N/A
3:55 am 03:55 Clear 52 11.1 42 5.8 70 70 ESE 9 15 30.30 1026 10 16 N/A
4:15 am 04:15 Clear 51 10.8 42 5.6 71 71 SE 8 13 30.27 1025 10 16 N/A
4:35 am 04:35 Clear 51 10.5 42 5.6 72 72 SE 8 13 30.27 1025 10 16 N/A
4:55 am 04:55 Clear 49 9.6 42 5.5 76 76 ESE 6 9 30.30 1026 10 16 N/A
5:15 am 05:15 Clear 48 9 42 5.6 79 79 ESE 7 11 30.30 1026 10 16 N/A
5:35 am 05:35 Clear 48 8.8 42 5.8 82 82 ESE 6 9 30.30 1026 10 16 N/A
5:55 am 05:55 Clear 48 8.9 43 6 82 82 ESE 6 9 30.33 1027 10 16 N/A
6:15 am 06:15 Partly Cloudy 47 8.6 43 6.1 84 84 ESE 7 11 30.33 1027 10 16 N/A
6:35 am 06:35 Mostly Cloudy 49 9.2 43 6.3 82 82 E 8 13 30.33 1027 10 16 N/A
6:55 am 06:55 Partly Cloudy 48 8.8 43 6.2 84 84 ESE 7 11 30.33 1027 10 16 N/A
7:15 am 07:15 Mostly Cloudy 48 9.1 44 6.5 84 84 ESE 7 11 30.33 1027 10 16 N/A
7:35 am 07:35 Mostly Cloudy 48 9 43 6.2 83 83 ESE 7 11 30.33 1027 10 16 N/A
7:55 am 07:55 Partly Cloudy 47 8.5 43 6.2 86 86 ESE 6 9 30.33 1027 10 16 N/A
8:15 am 08:15 Partly Cloudy 47 8.5 44 6.4 87 87 E 6 9 30.33 1027 10 16 N/A
8:35 am 08:35 Partly Cloudy 48 8.9 44 6.5 85 85 ESE 7 11 30.33 1027 10 16 N/A
8:55 am 08:55 Sunny 50 9.8 44 6.8 82 82 SE 9 15 30.30 1026 10 16 N/A
9:15 am 09:15 Sunny 50 10.2 44 6.8 80 80 SE 12 19 30.30 1026 10 16 N/A
9:35 am 09:35 Mostly Cloudy 52 11 45 7 77 77 ESE 12 19 30.30 1026 10 16 N/A
9:55 am 09:55 Mostly Cloudy 51 10.7 44 6.9 78 78 SE 14 22 30.30 1026 10 16 N/A
10:15 am 10:15 Cloudy 52 11.1 44 6.9 76 76 SE 8 13 30.30 1026 10 16 N/A
10:35 am 10:35 Cloudy 53 11.8 45 7.3 74 74 SE 10 17 30.30 1026 10 16 N/A
10:55 am 10:55 Cloudy 54 12.2 44 6.8 70 70 SSE 13 20 30.27 1025 10 16 N/A
11:15 am 11:15 Cloudy 55 12.7 44 6.8 68 68 SE 13 20 30.24 1024 10 16 N/A
11:35 am 11:35 Cloudy 57 13.7 45 7 64 64 SE 14 22 30.24 1024 10 16 N/A
12:00 pm 12:00 Partly Cloudy 58 14.6 46 7.8 64 64 SSE 15 24 30.24 1024 10 16 N/A
12:15 pm 12:15 Partly Cloudy 59 15 46 7.5 61 61 SE 10 17 30.24 1024 10 16 N/A
12:35 pm 12:35 Sunny 60 15.6 45 7.2 58 58 SE 10 17 30.18 1022 10 16 N/A
12:55 pm 12:55 Sunny 61 16.2 46 7.5 57 57 SE 13 20 30.18 1022 10 16 N/A
1:15 pm 13:15 Sunny 62 16.6 43 6.3 51 51 SE 13 20 30.18 1022 10 16 N/A
1:35 pm 13:35 Partly Cloudy 61 16.2 43 6 51 51 SE 9 15 30.15 1021 10 16 N/A
1:55 pm 13:55 Cloudy 62 16.5 43 6.1 50 50 SE 10 17 30.15 1021 10 16 N/A
2:15 pm 14:15 Cloudy 62 16.6 44 6.4 51 51 SE 13 20 30.15 1021 10 16 N/A
2:35 pm 14:35 Cloudy 63 17 42 5.8 48 48 SE 14 22 30.12 1020 10 16 N/A
2:55 pm 14:55 Partly Cloudy 62 16.8 42 5.6 48 48 SE 15 24 30.12 1020 10 16 N/A
3:15 pm 15:15 Partly Cloudy 62 16.5 43 6 50 50 SE 14 22 30.12 1020 10 16 N/A
3:35 pm 15:35 Mostly Cloudy 62 16.5 43 6.1 50 50 ESE 14 22 30.09 1019 10 16 N/A
3:55 pm 15:55 Mostly Cloudy 61 16.2 42 5.5 49 49 ESE 17 28 30.09 1019 10 16 N/A
4:15 pm 16:15 Mostly Cloudy 62 16.7 42 5.7 48 48 ESE 16 26 30.09 1019 10 16 N/A
4:35 pm 16:35 Partly Cloudy 63 17 41 5.2 46 46 ESE 14 22 30.06 1018 10 16 N/A
4:55 pm 16:55 Partly Cloudy 63 17.1 41 5 45 45 SE 15 24 30.06 1018 10 16 N/A
5:15 pm 17:15 Sunny 63 17 41 4.9 45 45 SE 14 22 30.06 1018 10 16 N/A
5:35 pm 17:35 Partly Cloudy 62 16.6 41 5.1 47 47 ESE 13 20 30.03 1017 10 16 N/A
5:55 pm 17:55 Partly Cloudy 63 17 42 5.4 47 47 ESE 17 28 30.03 1017 10 16 N/A
6:15 pm 18:15 Sunny 61 16.2 41 4.9 47 47 ESE 14 22 30.06 1018 10 16 N/A
6:35 pm 18:35 Sunny 61 16.2 39 4.1 45 45 ESE 15 24 30.03 1017 10 16 N/A
6:55 pm 18:55 Partly Cloudy 61 16.1 38 3.2 42 42 ESE 12 19 30.03 1017 10 16 N/A
7:15 pm 19:15 Mostly Cloudy 60 15.3 39 4.1 47 47 ESE 9 15 30.03 1017 10 16 N/A
7:35 pm 19:35 Mostly Cloudy 59 15.1 38 3.5 46 46 ESE 12 19 30.03 1017 10 16 N/A
7:55 pm 19:55 Partly Cloudy 58 14.4 38 3.5 48 48 ESE 10 17 30.03 1017 10 16 N/A
8:15 pm 20:15 Clear 58 14.3 38 3.2 47 47 ESE 10 17 30.03 1017 10 16 N/A
8:35 pm 20:35 Clear 57 13.9 38 3.2 49 49 ESE 10 17 30.03 1017 10 16 N/A
8:55 pm 20:55 Clear 56 13.1 38 3.5 52 52 ESE 8 13 30.06 1018 10 16 N/A
9:15 pm 21:15 Partly Cloudy 56 13.1 37 2.6 49 49 ESE 14 22 30.06 1018 10 16 N/A
9:35 pm 21:35 Partly Cloudy 55 13 36 2 47 47 ESE 14 22 30.06 1018 10 16 N/A

Powered by AerisWeather